Time,TemperatureF,DewpointF,PressureIn,WindDirection,WindDirectionDegrees,WindSpeedMPH,WindSpeedGustMPH,Humidity,HourlyPrecipIn,Conditions,Clouds,dailyrainin,SolarRadiationWatts/m^2,SoftwareType,DateUTC
2013-08-28 00:02:00,72.1,70.3,30.01,WNW,298,0.0,0.0,94,0.00,,,0.00,0,Wunderground v.1.15,2013-08-28 05:02:00,
2013-08-28 00:08:00,72.0,70.5,30.01,WNW,298,0.0,0.0,95,0.00,,,0.00,0,Wunderground v.1.15,2013-08-28 05:08:00,
2013-08-28 00:13:00,71.9,70.1,30.01,WNW,298,0.0,0.0,94,0.00,,,0.00,0,Wunderground v.1.15,2013-08-28 05:13:00,
2013-08-28 00:19:00,71.8,70.3,30.01,WNW,298,0.0,0.0,95,0.00,,,0.00,0,Wunderground v.1.15,2013-08-28 05:19:00,
2013-08-28 00:25:00,71.7,70.2,30.01,WNW,298,0.0,0.0,95,0.00,,,0.00,0,Wunderground v.1.15,2013-08-28 05:25:00,
2013-08-28 00:30:00,71.7,70.2,30.01,WNW,298,0.0,0.0,95,0.00,,,0.00,0,Wunderground v.1.15,2013-08-28 05:30:00,
2013-08-28 00:36:00,71.6,70.1,30.00,WNW,298,0.0,0.0,95,0.00,,,0.00,0,Wunderground v.1.15,2013-08-28 05:36:00,
2013-08-28 00:42:00,71.6,70.1,30.00,WNW,293,0.0,0.0,95,0.00,,,0.00,0,Wunderground v.1.15,2013-08-28 05:42:00,
2013-08-28 00:48:00,71.6,70.1,30.00,WNW,293,0.0,0.0,95,0.00,,,0.00,0,Wunderground v.1.15,2013-08-28 05:48:00,
2013-08-28 00:54:00,71.6,70.1,30.00,WNW,292,0.0,1.0,95,0.00,,,0.00,0,Wunderground v.1.15,2013-08-28 05:54:00,
2013-08-28 01:00:00,71.7,70.2,30.00,WNW,291,0.0,0.0,95,0.00,,,0.00,0,Wunderground v.1.15,2013-08-28 06:00:00,
2013-08-28 01:06:00,71.7,69.9,30.00,WNW,291,0.0,0.0,94,0.00,,,0.00,0,Wunderground v.1.15,2013-08-28 06:06:00,
2013-08-28 01:12:00,71.7,69.9,30.00,WNW,291,0.0,1.0,94,0.00,,,0.00,0,Wunderground v.1.15,2013-08-28 06:12:00,
2013-08-28 01:18:00,71.8,70.0,30.00,WNW,291,0.0,1.0,94,0.00,,,0.00,0,Wunderground v.1.15,2013-08-28 06:18:00,
2013-08-28 01:23:00,71.8,70.0,30.00,WNW,291,0.0,0.0,94,0.00,,,0.00,0,Wunderground v.1.15,2013-08-28 06:23:00,
2013-08-28 01:29:00,71.8,69.7,30.00,WNW,291,0.0,0.0,93,0.00,,,0.00,0,Wunderground v.1.15,2013-08-28 06:29:00,
2013-08-28 01:35:00,71.8,69.7,30.00,WNW,291,0.0,0.0,93,0.00,,,0.00,0,Wunderground v.1.15,2013-08-28 06:35:00,
2013-08-28 01:41:00,71.7,69.6,30.00,WNW,291,1.0,1.0,93,0.00,,,0.00,0,Wunderground v.1.15,2013-08-28 06:41:00,
2013-08-28 01:47:00,71.8,69.7,30.00,WNW,291,0.0,1.0,93,0.00,,,0.00,0,Wunderground v.1.15,2013-08-28 06:47:00,
2013-08-28 01:53:00,71.8,69.7,30.00,WNW,291,0.0,0.0,93,0.00,,,0.00,0,Wunderground v.1.15,2013-08-28 06:53:00,
2013-08-28 01:59:00,71.7,69.6,30.00,WNW,291,0.0,0.0,93,0.00,,,0.00,0,Wunderground v.1.15,2013-08-28 06:59:00,
2013-08-28 02:04:00,71.7,69.6,29.99,WNW,291,0.0,0.0,93,0.00,,,0.00,0,Wunderground v.1.15,2013-08-28 07:04:00,
2013-08-28 02:09:00,71.6,69.5,29.99,WNW,291,0.0,1.0,93,0.00,,,0.00,0,Wunderground v.1.15,2013-08-28 07:09:00,
2013-08-28 02:14:00,71.6,69.5,29.99,WNW,291,0.0,0.0,93,0.00,,,0.00,0,Wunderground v.1.15,2013-08-28 07:14:00,
2013-08-28 02:19:00,71.5,69.4,29.99,WNW,291,0.0,0.0,93,0.00,,,0.00,0,Wunderground v.1.15,2013-08-28 07:19:00,
2013-08-28 02:24:00,71.5,69.4,29.99,WNW,291,0.0,1.0,93,0.00,,,0.00,0,Wunderground v.1.15,2013-08-28 07:24:00,
2013-08-28 02:29:00,71.4,69.3,29.99,WNW,291,0.0,1.0,93,0.00,,,0.00,0,Wunderground v.1.15,2013-08-28 07:29:00,
2013-08-28 02:34:00,71.3,69.2,29.99,WNW,291,0.0,0.0,93,0.00,,,0.00,0,Wunderground v.1.15,2013-08-28 07:34:00,
2013-08-28 02:39:00,71.3,69.2,29.99,WNW,291,0.0,0.0,93,0.00,,,0.00,0,Wunderground v.1.15,2013-08-28 07:39:00,
2013-08-28 02:44:00,71.2,69.1,29.99,WNW,291,0.0,0.0,93,0.00,,,0.00,0,Wunderground v.1.15,2013-08-28 07:44:00,
2013-08-28 02:49:00,71.1,69.0,29.99,WNW,291,0.0,0.0,93,0.00,,,0.00,0,Wunderground v.1.15,2013-08-28 07:49:00,
2013-08-28 02:54:00,71.1,69.0,29.99,WNW,292,1.0,2.0,93,0.00,,,0.00,0,Wunderground v.1.15,2013-08-28 07:54:00,
2013-08-28 02:59:00,71.0,68.9,29.99,WNW,292,0.0,2.0,93,0.00,,,0.00,0,Wunderground v.1.15,2013-08-28 07:59:00,
2013-08-28 03:04:00,71.0,68.9,29.99,WNW,292,0.0,0.0,93,0.00,,,0.00,0,Wunderground v.1.15,2013-08-28 08:04:00,
2013-08-28 03:09:00,70.9,68.8,29.99,WNW,292,0.0,1.0,93,0.00,,,0.00,0,Wunderground v.1.15,2013-08-28 08:09:00,
2013-08-28 03:14:00,70.8,68.7,29.99,WNW,292,0.0,0.0,93,0.00,,,0.00,0,Wunderground v.1.15,2013-08-28 08:14:00,
2013-08-28 03:19:00,70.8,69.0,29.99,WNW,292,0.0,0.0,94,0.00,,,0.00,0,Wunderground v.1.15,2013-08-28 08:19:00,
2013-08-28 03:24:00,70.8,68.7,29.99,WNW,292,0.0,1.0,93,0.00,,,0.00,0,Wunderground v.1.15,2013-08-28 08:24:00,
2013-08-28 03:29:00,70.8,69.0,29.99,WNW,292,0.0,1.0,94,0.00,,,0.00,0,Wunderground v.1.15,2013-08-28 08:29:00,
2013-08-28 03:34:00,70.9,68.8,29.99,WNW,292,0.0,0.0,93,0.00,,,0.00,0,Wunderground v.1.15,2013-08-28 08:34:00,
2013-08-28 03:39:00,70.9,68.8,29.99,WNW,294,1.0,3.0,93,0.00,,,0.00,0,Wunderground v.1.15,2013-08-28 08:39:00,
2013-08-28 03:44:00,71.0,68.9,29.99,WNW,286,1.0,3.0,93,0.00,,,0.00,0,Wunderground v.1.15,2013-08-28 08:44:00,
2013-08-28 03:49:00,71.1,68.7,29.99,WSW,248,1.0,3.0,92,0.00,,,0.00,0,Wunderground v.1.15,2013-08-28 08:49:00,
2013-08-28 03:54:00,71.2,68.8,29.99,West,267,1.0,4.0,92,0.00,,,0.00,0,Wunderground v.1.15,2013-08-28 08:54:00,
2013-08-28 03:59:00,71.3,68.9,30.00,WNW,287,0.0,4.0,92,0.00,,,0.00,0,Wunderground v.1.15,2013-08-28 08:59:00,
2013-08-28 04:04:00,71.3,68.9,30.00,WNW,288,0.0,3.0,92,0.00,,,0.00,0,Wunderground v.1.15,2013-08-28 09:04:00,
2013-08-28 04:09:00,71.3,68.5,29.99,WNW,288,0.0,3.0,91,0.00,,,0.00,0,Wunderground v.1.15,2013-08-28 09:09:00,
2013-08-28 04:14:00,71.3,68.5,30.00,WNW,288,0.0,2.0,91,0.00,,,0.00,0,Wunderground v.1.15,2013-08-28 09:14:00,
2013-08-28 04:19:00,71.2,68.4,29.99,WNW,288,0.0,2.0,91,0.00,,,0.00,0,Wunderground v.1.15,2013-08-28 09:19:00,
2013-08-28 04:24:00,71.2,68.8,29.99,WNW,288,0.0,0.0,92,0.00,,,0.00,0,Wunderground v.1.15,2013-08-28 09:24:00,
2013-08-28 04:29:00,71.1,68.7,29.99,WNW,288,0.0,0.0,92,0.00,,,0.00,0,Wunderground v.1.15,2013-08-28 09:29:00,
2013-08-28 04:34:00,71.0,68.6,29.99,WNW,288,0.0,0.0,92,0.00,,,0.00,0,Wunderground v.1.15,2013-08-28 09:34:00,
2013-08-28 04:39:00,70.9,68.5,30.00,WNW,288,0.0,0.0,92,0.00,,,0.00,0,Wunderground v.1.15,2013-08-28 09:39:00,
2013-08-28 04:44:00,70.8,68.4,30.00,WNW,288,0.0,0.0,92,0.00,,,0.00,0,Wunderground v.1.15,2013-08-28 09:44:00,
2013-08-28 04:49:00,70.7,68.3,30.00,WNW,288,0.0,1.0,92,0.00,,,0.00,0,Wunderground v.1.15,2013-08-28 09:49:00,
2013-08-28 04:54:00,70.6,68.2,30.00,WNW,288,0.0,1.0,92,0.00,,,0.00,0,Wunderground v.1.15,2013-08-28 09:54:00,
2013-08-28 04:59:00,70.6,68.2,30.00,WNW,288,0.0,2.0,92,0.00,,,0.00,0,Wunderground v.1.15,2013-08-28 09:59:00,
2013-08-28 05:04:00,70.4,68.0,30.00,WNW,288,0.0,1.0,92,0.00,,,0.00,0,Wunderground v.1.15,2013-08-28 10:04:00,
2013-08-28 05:09:00,70.4,68.0,30.00,WNW,288,0.0,1.0,92,0.00,,,0.00,0,Wunderground v.1.15,2013-08-28 10:09:00,
2013-08-28 05:14:00,70.4,68.0,30.01,WNW,288,0.0,2.0,92,0.00,,,0.00,0,Wunderground v.1.15,2013-08-28 10:14:00,
2013-08-28 05:19:00,70.3,68.2,30.01,WNW,288,0.0,2.0,93,0.00,,,0.00,0,Wunderground v.1.15,2013-08-28 10:19:00,
2013-08-28 05:24:00,70.3,68.2,30.01,WNW,288,0.0,1.0,93,0.00,,,0.00,0,Wunderground v.1.15,2013-08-28 10:24:00,
2013-08-28 05:29:00,70.3,68.2,30.01,WNW,288,0.0,2.0,93,0.00,,,0.00,0,Wunderground v.1.15,2013-08-28 10:29:00,
2013-08-28 05:35:00,70.3,67.9,30.01,WNW,284,0.0,2.0,92,0.00,,,0.00,0,Wunderground v.1.15,2013-08-28 10:35:00,
2013-08-28 05:40:00,70.4,68.0,30.01,WNW,284,1.0,2.0,92,0.00,,,0.00,0,Wunderground v.1.15,2013-08-28 10:40:00,
2013-08-28 05:45:00,70.4,68.0,30.01,WNW,284,1.0,2.0,92,0.00,,,0.00,0,Wunderground v.1.15,2013-08-28 10:45:00,
2013-08-28 05:50:00,70.4,68.0,30.01,WNW,294,0.0,2.0,92,0.00,,,0.00,0,Wunderground v.1.15,2013-08-28 10:50:00,
2013-08-28 05:55:00,70.4,68.0,30.01,West,274,1.0,2.0,92,0.00,,,0.00,0,Wunderground v.1.15,2013-08-28 10:55:00,
2013-08-28 06:00:00,70.3,67.9,30.02,West,274,0.0,0.0,92,0.00,,,0.00,0,Wunderground v.1.15,2013-08-28 11:00:00,
2013-08-28 06:05:00,70.3,67.9,30.02,West,275,0.0,1.0,92,0.00,,,0.00,0,Wunderground v.1.15,2013-08-28 11:05:00,
2013-08-28 06:10:00,70.2,67.8,30.02,West,279,0.0,0.0,92,0.00,,,0.00,0,Wunderground v.1.15,2013-08-28 11:10:00,
2013-08-28 06:15:00,70.2,67.8,30.02,West,279,0.0,1.0,92,0.00,,,0.00,0,Wunderground v.1.15,2013-08-28 11:15:00,
2013-08-28 06:20:00,70.1,67.7,30.02,West,279,0.0,0.0,92,0.00,,,0.00,0,Wunderground v.1.15,2013-08-28 11:20:00,
2013-08-28 06:25:00,70.0,67.9,30.03,West,279,0.0,1.0,93,0.00,,,0.00,0,Wunderground v.1.15,2013-08-28 11:25:00,
2013-08-28 06:30:00,69.9,67.8,30.03,West,279,0.0,0.0,93,0.00,,,0.00,0,Wunderground v.1.15,2013-08-28 11:30:00,
2013-08-28 06:35:00,69.9,67.8,30.03,West,279,0.0,0.0,93,0.00,,,0.00,5,Wunderground v.1.15,2013-08-28 11:35:00,
2013-08-28 06:40:00,69.9,67.8,30.03,West,279,0.0,0.0,93,0.00,,,0.00,11,Wunderground v.1.15,2013-08-28 11:40:00,
2013-08-28 06:45:00,69.9,67.8,30.03,West,279,0.0,0.0,93,0.00,,,0.00,12,Wunderground v.1.15,2013-08-28 11:45:00,
2013-08-28 06:50:00,69.9,67.8,30.03,West,279,0.0,0.0,93,0.00,,,0.00,16,Wunderground v.1.15,2013-08-28 11:50:00,
2013-08-28 06:55:00,69.9,67.8,30.03,West,279,0.0,0.0,93,0.00,,,0.00,19,Wunderground v.1.15,2013-08-28 11:55:00,
2013-08-28 07:00:00,70.0,68.2,30.03,West,279,0.0,0.0,94,0.00,,,0.00,23,Wunderground v.1.15,2013-08-28 12:00:00,
2013-08-28 07:05:00,70.2,68.4,30.03,West,279,1.0,2.0,94,0.00,,,0.00,25,Wunderground v.1.15,2013-08-28 12:05:00,
2013-08-28 07:10:00,70.4,68.3,30.03,WNW,283,2.0,2.0,93,0.00,,,0.00,26,Wunderground v.1.15,2013-08-28 12:10:00,
2013-08-28 07:15:00,70.6,68.5,30.03,WNW,283,1.0,2.0,93,0.00,,,0.00,28,Wunderground v.1.15,2013-08-28 12:15:00,
2013-08-28 07:21:00,70.8,68.7,30.03,West,277,1.0,3.0,93,0.00,,,0.00,30,Wunderground v.1.15,2013-08-28 12:21:00,
2013-08-28 07:25:00,70.9,68.8,30.03,WNW,297,2.0,5.0,93,0.00,,,0.00,30,Wunderground v.1.15,2013-08-28 12:25:00,
2013-08-28 07:30:00,71.1,68.7,30.03,West,269,1.0,3.0,92,0.00,,,0.00,32,Wunderground v.1.15,2013-08-28 12:30:00,
2013-08-28 07:35:00,71.3,68.9,30.03,West,274,1.0,4.0,92,0.00,,,0.00,35,Wunderground v.1.15,2013-08-28 12:35:00,
2013-08-28 07:41:00,71.5,69.1,30.03,WNW,298,1.0,3.0,92,0.00,,,0.00,32,Wunderground v.1.15,2013-08-28 12:41:00,
2013-08-28 07:46:00,71.7,68.9,30.03,WNW,287,1.0,4.0,91,0.00,,,0.00,40,Wunderground v.1.15,2013-08-28 12:46:00,
2013-08-28 07:51:00,71.9,69.4,30.03,NW,325,0.0,2.0,92,0.00,,,0.00,44,Wunderground v.1.15,2013-08-28 12:51:00,
2013-08-28 07:56:00,72.2,69.4,30.03,WNW,290,2.0,4.0,91,0.00,,,0.00,49,Wunderground v.1.15,2013-08-28 12:56:00,
2013-08-28 08:01:00,72.5,69.7,30.03,NW,308,3.0,3.0,91,0.00,,,0.00,46,Wunderground v.1.15,2013-08-28 13:01:00,
2013-08-28 08:06:00,72.9,69.8,30.03,West,272,3.0,4.0,90,0.00,,,0.00,46,Wunderground v.1.15,2013-08-28 13:06:00,
2013-08-28 08:11:00,73.2,70.1,30.03,West,281,1.0,4.0,90,0.00,,,0.00,49,Wunderground v.1.15,2013-08-28 13:11:00,
2013-08-28 08:16:00,73.5,70.1,30.03,West,278,2.0,4.0,89,0.00,,,0.00,53,Wunderground v.1.15,2013-08-28 13:16:00,
2013-08-28 08:21:00,73.8,70.4,30.03,WNW,303,4.0,5.0,89,0.00,,,0.00,56,Wunderground v.1.15,2013-08-28 13:21:00,
2013-08-28 08:26:00,74.2,70.4,30.03,NW,313,2.0,6.0,88,0.00,,,0.00,65,Wunderground v.1.15,2013-08-28 13:26:00,
2013-08-28 08:31:00,74.6,70.8,30.03,WNW,294,2.0,3.0,88,0.00,,,0.00,84,Wunderground v.1.15,2013-08-28 13:31:00,
2013-08-28 08:36:00,75.0,71.2,30.03,NW,306,3.0,4.0,88,0.00,,,0.00,74,Wunderground v.1.15,2013-08-28 13:36:00,
2013-08-28 08:41:00,75.5,71.4,30.03,WNW,296,6.0,7.0,87,0.00,,,0.00,120,Wunderground v.1.15,2013-08-28 13:41:00,
2013-08-28 08:46:00,76.0,70.8,30.02,NW,315,4.0,7.0,84,0.00,,,0.00,70,Wunderground v.1.15,2013-08-28 13:46:00,
2013-08-28 08:51:00,76.5,70.2,30.02,WNW,302,8.0,10.0,81,0.00,,,0.00,107,Wunderground v.1.15,2013-08-28 13:51:00,
2013-08-28 08:56:00,76.9,71.0,30.02,West,269,4.0,10.0,82,0.00,,,0.00,308,Wunderground v.1.15,2013-08-28 13:56:00,
2013-08-28 09:01:00,77.2,70.9,30.03,NW,315,4.0,5.0,81,0.00,,,0.00,69,Wunderground v.1.15,2013-08-28 14:01:00,
2013-08-28 09:06:00,77.5,71.2,30.02,West,267,5.0,7.0,81,0.00,,,0.00,77,Wunderground v.1.15,2013-08-28 14:06:00,
2013-08-28 09:11:00,77.8,71.1,30.03,NW,315,7.0,7.0,80,0.00,,,0.00,67,Wunderground v.1.15,2013-08-28 14:11:00,
2013-08-28 09:16:00,78.1,71.1,30.03,West,274,3.0,7.0,79,0.00,,,0.00,67,Wunderground v.1.15,2013-08-28 14:16:00,
2013-08-28 09:21:00,78.4,71.3,30.03,West,280,5.0,6.0,79,0.00,,,0.00,81,Wunderground v.1.15,2013-08-28 14:21:00,
2013-08-28 09:26:00,78.7,71.6,30.03,WSW,249,3.0,9.0,79,0.00,,,0.00,158,Wunderground v.1.15,2013-08-28 14:26:00,
2013-08-28 09:31:00,79.1,71.6,30.03,NW,309,4.0,8.0,78,0.00,,,0.00,413,Wunderground v.1.15,2013-08-28 14:31:00,
2013-08-28 09:36:00,79.4,71.9,30.03,West,277,6.0,8.0,78,0.00,,,0.00,100,Wunderground v.1.15,2013-08-28 14:36:00,
2013-08-28 09:41:00,79.8,71.9,30.03,NW,308,6.0,6.0,77,0.00,,,0.00,90,Wunderground v.1.15,2013-08-28 14:41:00,
2013-08-28 09:46:00,80.3,72.4,30.03,NNW,332,3.0,7.0,77,0.00,,,0.00,137,Wunderground v.1.15,2013-08-28 14:46:00,
2013-08-28 09:51:00,80.8,72.5,30.03,WNW,287,3.0,5.0,76,0.00,,,0.00,229,Wunderground v.1.15,2013-08-28 14:51:00,
2013-08-28 09:56:00,81.1,72.0,30.03,NW,317,2.0,8.0,74,0.00,,,0.00,575,Wunderground v.1.15,2013-08-28 14:56:00,
2013-08-28 10:01:00,81.2,72.1,30.03,NW,310,2.0,4.0,74,0.00,,,0.00,156,Wunderground v.1.15,2013-08-28 15:01:00,
2013-08-28 10:06:00,81.5,72.4,30.03,NW,304,3.0,5.0,74,0.00,,,0.00,193,Wunderground v.1.15,2013-08-28 15:06:00,
2013-08-28 10:11:00,82.0,72.1,30.03,NW,316,6.0,7.0,72,0.00,,,0.00,413,Wunderground v.1.15,2013-08-28 15:11:00,
2013-08-28 10:16:00,82.3,72.8,30.03,NW,304,6.0,8.0,73,0.00,,,0.00,640,Wunderground v.1.15,2013-08-28 15:16:00,
2013-08-28 10:21:00,82.8,72.8,30.03,NW,311,5.0,7.0,72,0.00,,,0.00,650,Wunderground v.1.15,2013-08-28 15:21:00,
2013-08-28 10:27:00,83.4,72.2,30.03,NW,324,5.0,7.0,69,0.00,,,0.00,664,Wunderground v.1.15,2013-08-28 15:27:00,
2013-08-28 10:32:00,83.7,72.9,30.02,NW,306,2.0,8.0,70,0.00,,,0.00,677,Wunderground v.1.15,2013-08-28 15:32:00,
2013-08-28 10:37:00,84.0,73.2,30.02,NW,319,4.0,8.0,70,0.00,,,0.00,689,Wunderground v.1.15,2013-08-28 15:37:00,
2013-08-28 10:42:00,84.1,72.8,30.02,North,355,5.0,5.0,69,0.00,,,0.00,700,Wunderground v.1.15,2013-08-28 15:42:00,
2013-08-28 10:47:00,84.4,72.2,30.02,NNW,345,6.0,7.0,67,0.00,,,0.00,712,Wunderground v.1.15,2013-08-28 15:47:00,
2013-08-28 10:52:00,84.7,73.4,30.02,NNW,335,4.0,7.0,69,0.00,,,0.00,722,Wunderground v.1.15,2013-08-28 15:52:00,
2013-08-28 10:57:00,84.9,72.3,30.02,West,279,4.0,10.0,66,0.00,,,0.00,731,Wunderground v.1.15,2013-08-28 15:57:00,
2013-08-28 11:02:00,84.9,72.7,30.02,North,355,3.0,6.0,67,0.00,,,0.00,744,Wunderground v.1.15,2013-08-28 16:02:00,
2013-08-28 11:07:00,85.0,72.8,30.02,NW,315,10.0,10.0,67,0.00,,,0.00,752,Wunderground v.1.15,2013-08-28 16:07:00,
2013-08-28 11:12:00,85.0,71.9,30.02,West,278,9.0,9.0,65,0.00,,,0.00,761,Wunderground v.1.15,2013-08-28 16:12:00,
2013-08-28 11:17:00,85.0,72.8,30.02,WNW,283,3.0,9.0,67,0.00,,,0.00,770,Wunderground v.1.15,2013-08-28 16:17:00,
2013-08-28 11:22:00,85.0,71.9,30.02,WNW,288,2.0,8.0,65,0.00,,,0.00,777,Wunderground v.1.15,2013-08-28 16:22:00,
2013-08-28 11:27:00,85.5,74.2,30.02,WNW,298,4.0,8.0,69,0.00,,,0.00,786,Wunderground v.1.15,2013-08-28 16:27:00,
2013-08-28 11:32:00,85.9,72.3,30.02,WNW,286,5.0,8.0,64,0.00,,,0.00,795,Wunderground v.1.15,2013-08-28 16:32:00,
2013-08-28 11:37:00,85.7,71.7,30.02,WNW,284,4.0,8.0,63,0.00,,,0.00,802,Wunderground v.1.15,2013-08-28 16:37:00,
2013-08-28 11:42:00,85.7,72.6,30.02,WSW,255,4.0,8.0,65,0.00,,,0.00,807,Wunderground v.1.15,2013-08-28 16:42:00,
2013-08-28 11:47:00,85.9,72.3,30.02,NNW,338,1.0,10.0,64,0.00,,,0.00,814,Wunderground v.1.15,2013-08-28 16:47:00,
2013-08-28 11:52:00,86.1,72.5,30.02,WNW,297,1.0,7.0,64,0.00,,,0.00,823,Wunderground v.1.15,2013-08-28 16:52:00,
2013-08-28 11:57:00,86.2,72.1,30.02,WSW,255,3.0,7.0,63,0.00,,,0.00,824,Wunderground v.1.15,2013-08-28 16:57:00,
2013-08-28 12:02:00,86.2,73.0,30.02,West,269,3.0,5.0,65,0.00,,,0.00,830,Wunderground v.1.15,2013-08-28 17:02:00,
2013-08-28 12:07:00,86.4,72.3,30.02,WNW,288,2.0,5.0,63,0.00,,,0.00,837,Wunderground v.1.15,2013-08-28 17:07:00,
2013-08-28 12:12:00,86.9,73.3,30.02,NW,314,7.0,7.0,64,0.00,,,0.00,840,Wunderground v.1.15,2013-08-28 17:12:00,
2013-08-28 12:17:00,87.3,73.2,30.01,WNW,295,5.0,7.0,63,0.00,,,0.00,844,Wunderground v.1.15,2013-08-28 17:17:00,
2013-08-28 12:22:00,87.4,73.7,30.01,North,355,2.0,5.0,64,0.00,,,0.00,847,Wunderground v.1.15,2013-08-28 17:22:00,
2013-08-28 12:27:00,87.5,72.4,30.01,WNW,283,1.0,7.0,61,0.00,,,0.00,854,Wunderground v.1.15,2013-08-28 17:27:00,
2013-08-28 12:32:00,87.6,72.5,30.01,West,268,5.0,5.0,61,0.00,,,0.00,854,Wunderground v.1.15,2013-08-28 17:32:00,
2013-08-28 12:37:00,87.7,73.1,30.01,NW,324,2.0,8.0,62,0.00,,,0.00,861,Wunderground v.1.15,2013-08-28 17:37:00,
2013-08-28 12:42:00,87.8,72.7,30.01,WNW,298,6.0,6.0,61,0.00,,,0.00,858,Wunderground v.1.15,2013-08-28 17:42:00,
2013-08-28 12:47:00,87.9,72.8,30.01,NNW,333,7.0,7.0,61,0.00,,,0.00,856,Wunderground v.1.15,2013-08-28 17:47:00,
2013-08-28 12:52:00,88.0,72.4,30.01,WNW,282,1.0,5.0,60,0.00,,,0.00,863,Wunderground v.1.15,2013-08-28 17:52:00,
2013-08-28 12:57:00,88.2,72.1,30.01,NW,311,1.0,6.0,59,0.00,,,0.00,860,Wunderground v.1.15,2013-08-28 17:57:00,
2013-08-28 13:02:00,88.5,73.3,30.01,West,281,6.0,6.0,61,0.00,,,0.00,846,Wunderground v.1.15,2013-08-28 18:02:00,
2013-08-28 13:07:00,88.5,73.8,30.00,North,355,8.0,8.0,62,0.00,,,0.00,858,Wunderground v.1.15,2013-08-28 18:07:00,
2013-08-28 13:12:00,88.6,72.9,30.00,WNW,298,2.0,7.0,60,0.00,,,0.00,865,Wunderground v.1.15,2013-08-28 18:12:00,
2013-08-28 13:18:00,88.9,72.2,30.00,NNW,327,5.0,7.0,58,0.00,,,0.00,863,Wunderground v.1.15,2013-08-28 18:18:00,
2013-08-28 13:23:00,89.1,73.4,30.00,NW,311,4.0,5.0,60,0.00,,,0.00,856,Wunderground v.1.15,2013-08-28 18:23:00,
2013-08-28 13:28:00,89.2,72.0,30.00,NW,319,2.0,5.0,57,0.00,,,0.00,853,Wunderground v.1.15,2013-08-28 18:28:00,
2013-08-28 13:33:00,89.2,72.5,30.00,West,269,5.0,6.0,58,0.00,,,0.00,856,Wunderground v.1.15,2013-08-28 18:33:00,
2013-08-28 13:38:00,89.3,70.5,30.00,North,355,0.0,7.0,54,0.00,,,0.00,844,Wunderground v.1.15,2013-08-28 18:38:00,
2013-08-28 13:43:00,89.7,74.5,30.00,West,277,7.0,7.0,61,0.00,,,0.00,846,Wunderground v.1.15,2013-08-28 18:43:00,
2013-08-28 13:48:00,89.7,71.4,30.00,NW,322,2.0,7.0,55,0.00,,,0.00,842,Wunderground v.1.15,2013-08-28 18:48:00,
2013-08-28 13:53:00,90.0,71.1,30.00,West,281,0.0,6.0,54,0.00,,,0.00,844,Wunderground v.1.15,2013-08-28 18:53:00,
2013-08-28 13:58:00,90.3,72.5,29.99,NW,320,1.0,6.0,56,0.00,,,0.00,833,Wunderground v.1.15,2013-08-28 18:58:00,
2013-08-28 14:03:00,90.5,72.1,29.99,NW,305,2.0,6.0,55,0.00,,,0.00,849,Wunderground v.1.15,2013-08-28 19:03:00,
2013-08-28 14:08:00,90.4,71.5,29.99,NNW,346,3.0,8.0,54,0.00,,,0.00,842,Wunderground v.1.15,2013-08-28 19:08:00,
2013-08-28 14:13:00,90.4,72.6,29.99,NW,305,4.0,5.0,56,0.00,,,0.00,837,Wunderground v.1.15,2013-08-28 19:13:00,
2013-08-28 14:18:00,90.3,71.4,29.99,NW,317,3.0,6.0,54,0.00,,,0.00,835,Wunderground v.1.15,2013-08-28 19:18:00,
2013-08-28 14:23:00,90.5,71.0,29.99,NW,304,5.0,6.0,53,0.00,,,0.00,847,Wunderground v.1.15,2013-08-28 19:23:00,
2013-08-28 14:28:00,90.5,70.5,29.99,WNW,296,4.0,6.0,52,0.00,,,0.00,902,Wunderground v.1.15,2013-08-28 19:28:00,
2013-08-28 14:33:00,90.1,70.1,29.99,WNW,302,1.0,7.0,52,0.00,,,0.00,257,Wunderground v.1.15,2013-08-28 19:33:00,
2013-08-28 14:38:00,90.1,71.8,29.98,West,261,3.0,7.0,55,0.00,,,0.00,793,Wunderground v.1.15,2013-08-28 19:38:00,
2013-08-28 14:43:00,89.9,70.5,29.98,WSW,252,2.0,5.0,53,0.00,,,0.00,137,Wunderground v.1.15,2013-08-28 19:43:00,
2013-08-28 14:48:00,89.6,71.3,29.98,WNW,300,4.0,5.0,55,0.00,,,0.00,132,Wunderground v.1.15,2013-08-28 19:48:00,
2013-08-28 14:53:00,89.6,71.8,29.98,NNW,331,3.0,5.0,56,0.00,,,0.00,812,Wunderground v.1.15,2013-08-28 19:53:00,
2013-08-28 14:58:00,89.7,70.8,29.98,WNW,287,5.0,7.0,54,0.00,,,0.00,772,Wunderground v.1.15,2013-08-28 19:58:00,
2013-08-28 15:03:00,90.1,71.2,29.98,NNW,343,3.0,6.0,54,0.00,,,0.00,765,Wunderground v.1.15,2013-08-28 20:03:00,
2013-08-28 15:08:00,89.9,72.1,29.98,NW,315,2.0,6.0,56,0.00,,,0.00,98,Wunderground v.1.15,2013-08-28 20:08:00,
2013-08-28 15:13:00,89.3,72.1,29.98,NNW,342,1.0,3.0,57,0.00,,,0.00,758,Wunderground v.1.15,2013-08-28 20:13:00,
2013-08-28 15:18:00,89.3,71.5,29.97,NNW,329,2.0,5.0,56,0.00,,,0.00,142,Wunderground v.1.15,2013-08-28 20:18:00,
2013-08-28 15:23:00,89.5,71.7,29.97,WNW,288,3.0,7.0,56,0.00,,,0.00,707,Wunderground v.1.15,2013-08-28 20:23:00,
2013-08-28 15:28:00,89.9,72.1,29.97,NW,306,4.0,7.0,56,0.00,,,0.00,700,Wunderground v.1.15,2013-08-28 20:28:00,
2013-08-28 15:33:00,90.1,71.2,29.97,WSW,256,1.0,4.0,54,0.00,,,0.00,671,Wunderground v.1.15,2013-08-28 20:33:00,
2013-08-28 15:38:00,90.6,71.1,29.97,NW,324,5.0,7.0,53,0.00,,,0.00,657,Wunderground v.1.15,2013-08-28 20:38:00,
2013-08-28 15:43:00,90.7,70.7,29.97,WSW,244,4.0,7.0,52,0.00,,,0.00,643,Wunderground v.1.15,2013-08-28 20:43:00,
2013-08-28 15:49:00,90.6,71.7,29.97,NW,317,2.0,7.0,54,0.00,,,0.00,624,Wunderground v.1.15,2013-08-28 20:49:00,
2013-08-28 15:54:00,90.9,72.5,29.97,NW,312,4.0,5.0,55,0.00,,,0.00,612,Wunderground v.1.15,2013-08-28 20:54:00,
2013-08-28 15:59:00,90.6,71.7,29.97,NNW,335,3.0,9.0,54,0.00,,,0.00,599,Wunderground v.1.15,2013-08-28 20:59:00,
2013-08-28 16:04:00,90.6,70.6,29.97,NNW,334,5.0,6.0,52,0.00,,,0.00,582,Wunderground v.1.15,2013-08-28 21:04:00,
2013-08-28 16:09:00,90.5,71.0,29.97,NW,306,3.0,6.0,53,0.00,,,0.00,575,Wunderground v.1.15,2013-08-28 21:09:00,
2013-08-28 16:14:00,90.6,71.7,29.97,WNW,299,4.0,6.0,54,0.00,,,0.00,554,Wunderground v.1.15,2013-08-28 21:14:00,
2013-08-28 16:19:00,90.8,71.3,29.97,NW,324,3.0,6.0,53,0.00,,,0.00,536,Wunderground v.1.15,2013-08-28 21:19:00,
2013-08-28 16:24:00,90.8,73.5,29.97,NW,309,2.0,5.0,57,0.00,,,0.00,519,Wunderground v.1.15,2013-08-28 21:24:00,
2013-08-28 16:29:00,90.8,72.4,29.97,NW,313,2.0,5.0,55,0.00,,,0.00,504,Wunderground v.1.15,2013-08-28 21:29:00,
2013-08-28 16:34:00,90.8,71.9,29.97,NW,321,5.0,6.0,54,0.00,,,0.00,501,Wunderground v.1.15,2013-08-28 21:34:00,
2013-08-28 16:39:00,90.5,71.0,29.97,NNW,333,0.0,6.0,53,0.00,,,0.00,473,Wunderground v.1.15,2013-08-28 21:39:00,
2013-08-28 16:44:00,90.8,71.3,29.97,NNE,17,1.0,4.0,53,0.00,,,0.00,466,Wunderground v.1.15,2013-08-28 21:44:00,
2013-08-28 16:49:00,91.1,69.9,29.97,NW,313,4.0,7.0,50,0.00,,,0.00,446,Wunderground v.1.15,2013-08-28 21:49:00,
2013-08-28 16:54:00,90.7,71.2,29.97,NNW,331,3.0,6.0,53,0.00,,,0.00,434,Wunderground v.1.15,2013-08-28 21:54:00,
2013-08-28 16:59:00,90.4,72.6,29.97,NW,304,4.0,6.0,56,0.00,,,0.00,408,Wunderground v.1.15,2013-08-28 21:59:00,
2013-08-28 17:04:00,90.5,72.7,29.97,West,272,3.0,4.0,56,0.00,,,0.00,403,Wunderground v.1.15,2013-08-28 22:04:00,
2013-08-28 17:09:00,90.7,71.8,29.97,West,277,2.0,5.0,54,0.00,,,0.00,380,Wunderground v.1.15,2013-08-28 22:09:00,
2013-08-28 17:14:00,90.9,71.4,29.96,West,265,2.0,5.0,53,0.00,,,0.00,359,Wunderground v.1.15,2013-08-28 22:14:00,
2013-08-28 17:19:00,90.8,72.9,29.96,WNW,287,2.0,5.0,56,0.00,,,0.00,345,Wunderground v.1.15,2013-08-28 22:19:00,
2013-08-28 17:24:00,90.8,71.3,29.96,West,269,2.0,4.0,53,0.00,,,0.00,318,Wunderground v.1.15,2013-08-28 22:24:00,
2013-08-28 17:29:00,90.7,72.3,29.96,WNW,287,1.0,4.0,55,0.00,,,0.00,287,Wunderground v.1.15,2013-08-28 22:29:00,
2013-08-28 17:34:00,90.5,73.2,29.96,WNW,296,2.0,3.0,57,0.00,,,0.00,260,Wunderground v.1.15,2013-08-28 22:34:00,
2013-08-28 17:39:00,90.2,71.8,29.96,NW,306,2.0,4.0,55,0.00,,,0.00,158,Wunderground v.1.15,2013-08-28 22:39:00,
2013-08-28 17:44:00,89.8,72.5,29.96,WNW,284,1.0,4.0,57,0.00,,,0.00,267,Wunderground v.1.15,2013-08-28 22:44:00,
2013-08-28 17:49:00,89.7,73.5,29.96,WNW,283,2.0,4.0,59,0.00,,,0.00,241,Wunderground v.1.15,2013-08-28 22:49:00,
2013-08-28 17:54:00,89.7,72.4,29.96,WNW,283,2.0,2.0,57,0.00,,,0.00,220,Wunderground v.1.15,2013-08-28 22:54:00,
2013-08-28 17:59:00,89.7,71.9,29.96,WNW,294,0.0,3.0,56,0.00,,,0.00,202,Wunderground v.1.15,2013-08-28 22:59:00,
2013-08-28 18:04:00,89.5,72.8,29.96,WNW,286,0.0,3.0,58,0.00,,,0.00,188,Wunderground v.1.15,2013-08-28 23:04:00,
2013-08-28 18:09:00,89.5,72.8,29.97,WNW,286,1.0,4.0,58,0.00,,,0.00,167,Wunderground v.1.15,2013-08-28 23:09:00,
2013-08-28 18:14:00,89.3,72.1,29.97,WNW,286,1.0,3.0,57,0.00,,,0.00,151,Wunderground v.1.15,2013-08-28 23:14:00,
2013-08-28 18:19:00,89.3,73.1,29.96,WNW,286,1.0,3.0,59,0.00,,,0.00,135,Wunderground v.1.15,2013-08-28 23:19:00,
2013-08-28 18:24:00,88.9,74.2,29.96,WNW,286,2.0,2.0,62,0.00,,,0.00,118,Wunderground v.1.15,2013-08-28 23:24:00,
2013-08-28 18:29:00,88.6,73.9,29.96,WNW,286,0.0,2.0,62,0.00,,,0.00,98,Wunderground v.1.15,2013-08-28 23:29:00,
2013-08-28 18:34:00,88.5,75.2,29.96,WNW,286,0.0,1.0,65,0.00,,,0.00,86,Wunderground v.1.15,2013-08-28 23:34:00,
2013-08-28 18:39:00,88.1,74.8,29.97,WNW,286,0.0,1.0,65,0.00,,,0.00,72,Wunderground v.1.15,2013-08-28 23:39:00,
2013-08-28 18:44:00,87.7,74.9,29.96,WNW,286,0.0,0.0,66,0.00,,,0.00,60,Wunderground v.1.15,2013-08-28 23:44:00,
2013-08-28 18:49:00,87.4,74.6,29.96,NNE,32,0.0,1.0,66,0.00,,,0.00,46,Wunderground v.1.15,2013-08-28 23:49:00,
2013-08-28 18:54:00,86.9,75.5,29.96,NNE,32,0.0,0.0,69,0.00,,,0.00,37,Wunderground v.1.15,2013-08-28 23:54:00,
2013-08-28 18:59:00,86.4,75.5,29.97,NNE,32,0.0,0.0,70,0.00,,,0.00,30,Wunderground v.1.15,2013-08-28 23:59:00,
2013-08-28 19:04:00,85.9,75.4,29.97,NNE,32,0.0,0.0,71,0.00,,,0.00,23,Wunderground v.1.15,2013-08-29 00:04:00,
2013-08-28 19:09:00,85.2,75.6,29.97,NNE,32,0.0,0.0,73,0.00,,,0.00,18,Wunderground v.1.15,2013-08-29 00:09:00,
2013-08-28 19:15:00,84.2,75.4,29.97,NNE,32,0.0,0.0,75,0.00,,,0.00,11,Wunderground v.1.15,2013-08-29 00:15:00,
2013-08-28 19:20:00,83.3,75.3,29.97,NNE,32,0.0,0.0,77,0.00,,,0.00,5,Wunderground v.1.15,2013-08-29 00:20:00,
2013-08-28 19:25:00,82.5,74.9,29.97,NNE,32,0.0,0.0,78,0.00,,,0.00,0,Wunderground v.1.15,2013-08-29 00:25:00,
2013-08-28 19:30:00,81.9,74.7,29.97,NNE,32,0.0,0.0,79,0.00,,,0.00,0,Wunderground v.1.15,2013-08-29 00:30:00,
2013-08-28 19:35:00,81.4,75.0,29.97,NNE,32,0.0,0.0,81,0.00,,,0.00,0,Wunderground v.1.15,2013-08-29 00:35:00,
2013-08-28 19:40:00,80.9,74.5,29.97,NNE,32,0.0,0.0,81,0.00,,,0.00,0,Wunderground v.1.15,2013-08-29 00:40:00,
2013-08-28 19:45:00,80.3,74.3,29.97,NNE,32,0.0,0.0,82,0.00,,,0.00,0,Wunderground v.1.15,2013-08-29 00:45:00,
2013-08-28 19:50:00,79.9,74.3,29.97,NNE,32,0.0,0.0,83,0.00,,,0.00,0,Wunderground v.1.15,2013-08-29 00:50:00,
2013-08-28 19:55:00,79.4,74.1,29.97,NNE,32,0.0,0.0,84,0.00,,,0.00,0,Wunderground v.1.15,2013-08-29 00:55:00,
2013-08-28 20:00:00,79.0,73.7,29.97,NNE,32,0.0,0.0,84,0.00,,,0.00,0,Wunderground v.1.15,2013-08-29 01:00:00,
2013-08-28 20:05:00,78.7,73.5,29.97,NNE,32,0.0,0.0,84,0.00,,,0.00,0,Wunderground v.1.15,2013-08-29 01:05:00,
2013-08-28 20:10:00,78.4,73.5,29.97,NNE,32,0.0,0.0,85,0.00,,,0.00,0,Wunderground v.1.15,2013-08-29 01:10:00,
2013-08-28 20:15:00,78.1,73.2,29.97,NNE,32,0.0,0.0,85,0.00,,,0.00,0,Wunderground v.1.15,2013-08-29 01:15:00,
2013-08-28 20:20:00,77.8,73.3,29.97,NNE,32,0.0,0.0,86,0.00,,,0.00,0,Wunderground v.1.15,2013-08-29 01:20:00,
2013-08-28 20:25:00,77.6,73.1,29.97,NNE,32,0.0,0.0,86,0.00,,,0.00,0,Wunderground v.1.15,2013-08-29 01:25:00,
2013-08-28 20:30:00,77.3,72.8,29.97,NNE,32,0.0,0.0,86,0.00,,,0.00,0,Wunderground v.1.15,2013-08-29 01:30:00,
2013-08-28 20:35:00,77.0,72.8,29.98,NNE,32,0.0,0.0,87,0.00,,,0.00,0,Wunderground v.1.15,2013-08-29 01:35:00,
2013-08-28 20:40:00,76.8,73.0,29.98,NNE,32,0.0,0.0,88,0.00,,,0.00,0,Wunderground v.1.15,2013-08-29 01:40:00,
2013-08-28 20:45:00,76.5,72.7,29.98,NNE,32,0.0,0.0,88,0.00,,,0.00,0,Wunderground v.1.15,2013-08-29 01:45:00,
2013-08-28 20:51:00,76.3,72.5,29.98,NNE,32,0.0,0.0,88,0.00,,,0.00,0,Wunderground v.1.15,2013-08-29 01:51:00,
2013-08-28 20:56:00,76.1,72.3,29.98,NNE,32,0.0,0.0,88,0.00,,,0.00,0,Wunderground v.1.15,2013-08-29 01:56:00,
2013-08-28 21:01:00,75.8,72.0,29.98,NNE,32,0.0,0.0,88,0.00,,,0.00,0,Wunderground v.1.15,2013-08-29 02:01:00,
2013-08-28 21:06:00,75.7,72.2,29.98,NNE,32,0.0,0.0,89,0.00,,,0.00,0,Wunderground v.1.15,2013-08-29 02:06:00,
2013-08-28 21:11:00,75.4,71.9,29.98,NNE,32,0.0,0.0,89,0.00,,,0.00,0,Wunderground v.1.15,2013-08-29 02:11:00,
2013-08-28 21:16:00,75.3,71.8,29.98,NNE,32,0.0,0.0,89,0.00,,,0.00,0,Wunderground v.1.15,2013-08-29 02:16:00,
2013-08-28 21:21:00,75.1,72.0,29.98,NNE,32,0.0,0.0,90,0.00,,,0.00,0,Wunderground v.1.15,2013-08-29 02:21:00,
2013-08-28 21:26:00,74.9,71.8,29.98,NNE,32,0.0,0.0,90,0.00,,,0.00,0,Wunderground v.1.15,2013-08-29 02:26:00,
2013-08-28 21:31:00,74.8,71.7,29.98,NNE,32,0.0,0.0,90,0.00,,,0.00,0,Wunderground v.1.15,2013-08-29 02:31:00,
2013-08-28 21:36:00,74.7,71.6,29.98,NNE,32,0.0,0.0,90,0.00,,,0.00,0,Wunderground v.1.15,2013-08-29 02:36:00,
2013-08-28 21:41:00,74.6,71.5,29.98,NNE,32,0.0,0.0,90,0.00,,,0.00,0,Wunderground v.1.15,2013-08-29 02:41:00,
2013-08-28 21:46:00,74.5,71.4,29.98,NNE,32,0.0,0.0,90,0.00,,,0.00,0,Wunderground v.1.15,2013-08-29 02:46:00,
2013-08-28 21:51:00,74.4,71.3,29.99,NNE,32,0.0,0.0,90,0.00,,,0.00,0,Wunderground v.1.15,2013-08-29 02:51:00,
2013-08-28 21:56:00,74.2,71.4,29.99,NNE,32,0.0,0.0,91,0.00,,,0.00,0,Wunderground v.1.15,2013-08-29 02:56:00,
2013-08-28 22:01:00,74.1,71.3,29.99,NNE,32,0.0,0.0,91,0.00,,,0.00,0,Wunderground v.1.15,2013-08-29 03:01:00,
2013-08-28 22:06:00,74.0,71.2,29.99,NNE,32,0.0,0.0,91,0.00,,,0.00,0,Wunderground v.1.15,2013-08-29 03:06:00,
2013-08-28 22:11:00,73.9,71.1,29.99,NNE,32,0.0,0.0,91,0.00,,,0.00,0,Wunderground v.1.15,2013-08-29 03:11:00,
2013-08-28 22:16:00,73.8,71.0,29.99,NNE,32,0.0,0.0,91,0.00,,,0.00,0,Wunderground v.1.15,2013-08-29 03:16:00,
2013-08-28 22:21:00,73.8,71.0,29.99,NNE,32,0.0,0.0,91,0.00,,,0.00,0,Wunderground v.1.15,2013-08-29 03:21:00,
2013-08-28 22:26:00,73.7,70.9,29.99,NNE,32,0.0,0.0,91,0.00,,,0.00,0,Wunderground v.1.15,2013-08-29 03:26:00,
2013-08-28 22:31:00,73.5,70.7,29.99,NNE,32,0.0,0.0,91,0.00,,,0.00,0,Wunderground v.1.15,2013-08-29 03:31:00,
2013-08-28 22:36:00,73.5,70.7,29.99,NNE,32,0.0,0.0,91,0.00,,,0.00,0,Wunderground v.1.15,2013-08-29 03:36:00,
2013-08-28 22:41:00,73.4,70.6,29.99,NNE,32,0.0,0.0,91,0.00,,,0.00,0,Wunderground v.1.15,2013-08-29 03:41:00,
2013-08-28 22:46:00,73.3,70.5,29.99,NNE,32,0.0,0.0,91,0.00,,,0.00,0,Wunderground v.1.15,2013-08-29 03:46:00,
2013-08-28 22:51:00,73.2,70.4,29.99,NNE,32,0.0,0.0,91,0.00,,,0.00,0,Wunderground v.1.15,2013-08-29 03:51:00,
2013-08-28 22:56:00,73.1,70.3,29.99,NNE,32,0.0,0.0,91,0.00,,,0.00,0,Wunderground v.1.15,2013-08-29 03:56:00,
2013-08-28 23:01:00,73.1,70.3,29.98,NNE,32,0.0,0.0,91,0.00,,,0.00,0,Wunderground v.1.15,2013-08-29 04:01:00,
2013-08-28 23:02:00,73.1,70.3,29.99,NNE,32,0.0,0.0,91,0.00,,,0.00,0,Wunderground v.1.15,2013-08-29 04:02:00,
2013-08-28 23:07:00,73.1,70.3,29.98,NNE,32,0.0,0.0,91,0.00,,,0.00,0,Wunderground v.1.15,2013-08-29 04:07:00,
2013-08-28 23:12:00,73.1,70.3,29.98,NNE,32,0.0,0.0,91,0.00,,,0.00,0,Wunderground v.1.15,2013-08-29 04:12:00,
2013-08-28 23:17:00,73.0,70.2,29.98,NNE,32,0.0,0.0,91,0.00,,,0.00,0,Wunderground v.1.15,2013-08-29 04:17:00,
2013-08-28 23:22:00,73.0,70.2,29.98,NNE,32,0.0,0.0,91,0.00,,,0.00,0,Wunderground v.1.15,2013-08-29 04:22:00,
2013-08-28 23:27:00,73.0,70.2,29.98,NNE,32,0.0,0.0,91,0.00,,,0.00,0,Wunderground v.1.15,2013-08-29 04:27:00,
2013-08-28 23:32:00,73.0,70.2,29.98,NNE,32,0.0,1.0,91,0.00,,,0.00,0,Wunderground v.1.15,2013-08-29 04:32:00,
2013-08-28 23:37:00,73.1,70.3,29.98,NNE,32,0.0,1.0,91,0.00,,,0.00,0,Wunderground v.1.15,2013-08-29 04:37:00,
2013-08-28 23:42:00,73.2,70.1,29.98,NNW,335,0.0,2.0,90,0.00,,,0.00,0,Wunderground v.1.15,2013-08-29 04:42:00,
2013-08-28 23:47:00,73.4,70.3,29.98,NNW,328,0.0,2.0,90,0.00,,,0.00,0,Wunderground v.1.15,2013-08-29 04:47:00,
2013-08-28 23:52:00,73.6,70.5,29.98,NW,323,0.0,2.0,90,0.00,,,0.00,0,Wunderground v.1.15,2013-08-29 04:52:00,
2013-08-28 23:58:00,73.7,70.3,29.98,NW,323,0.0,2.0,89,0.00,,,0.00,0,Wunderground v.1.15,2013-08-29 04:58:00,